Weather in Naples

United States     26°08′53″N   81°47′25″W
temp.,
°C
wind,
m/s
gust,
m/s
humid.,
%
clouds,
%
prec.,
mm/h
press.,
hPa
HPBL,
m
26 may, thu
thu2623:00+26ese5962100 0.0 1019398
02:00+24e487829 0.0 1018294
05:00+23e5108413 0.0 1017428
08:00+25ese51075100 0.0 1018699
11:00+30se5643100 0.0 10191615
14:00+32ssw774791 0.0 10171607
17:00+31ssw775217 0.0 10151080
20:00+28ssw466262 0.0 1016550
27 may, fri
fri2723:00+26sse46665 0.0 1017289
02:00+24ese34795 0.0 1016123
05:00+23ese23885 0.0 1016100
08:00+25ese34795 0.0 1017222
11:00+30ssw44559 0.0 10171464
14:00+30sw765616 0.1 10161187
17:00+30sw655725 0.0 10141208
20:00+27wsw34667 0.0 1015422
28 may, sat
sat2823:00+26sw33710 0.0 1015158
02:00+25sw11750 0.0 1014126
05:00+24s22781 0.0 1014147
08:00+26se23720 0.0 1014311
11:00+30sw43510 0.0 10141391
14:00+30wsw64490 0.0 10141333
17:00+30wsw65490 0.0 10131066
20:00+26w34660 0.0 1013206
29 may, sun
sun2923:00+24nw11790 0.0 101491
02:00+23n11830 0.0 101468
05:00+22e22870 0.0 101443
08:00+25ese23730 0.0 1015180
11:00+30s33470 0.0 10151295
14:00+32sw75473 0.0 10141514
17:00+31wsw65515 0.0 1013815
20:00+28w2362100 0.3 1014146
30 may, mon
mon3023:00+23e698986 8.2 1017242
02:00+24ese237652 9.2 1016116
05:00+23ene3382100 0.0 101685
08:00+25ene468020 0.0 1017243
11:00+30e565340 0.0 10171417
14:00+34e353784 0.0 10152448
17:00+29wsw556091 0.1 1015424
20:00+26nnw6677100 5.4 1016144